Annette Island, AK

6:23 PM AKST on November 18, 2017 (GMT -0900)
Annette Island

Weather History for PANT - September, 2013

Change the Weather History Date:

Saturday, September 21, 2013

  Actual Average Record
Temperature  
Mean Temperature 54 °F 53 °F  
Max Temperature 56 °F 58 °F 75 °F (1974)
Min Temperature 51 °F 47 °F 36 °F (1996)
Degree Days  
Heating Degree Days 11 12  
Month to date heating degree days 120 215  
Since 1 July heating degree days 422 616  
Cooling Degree Days 0    
Month to date cooling degree days 0  
Year to date cooling degree days 22  
Growing Degree Days 2 (Base 50)    
Moisture  
Dew Point 49 °F    
Average Humidity 0    
Maximum Humidity 0    
Minimum Humidity 0    
Precipitation  
Precipitation 0.02 in 0.34 in 3.06 in (1949)
Month to date precipitation 2.84 6.55  
Year to date precipitation 54.44 61.46  
Snow  
Snow 0.00 in 0.00 in 0.00 in (2015)
Month to date snowfall 0.0 0.0  
Since 1 July snowfall 0.0 0.0  
Since 1 September snowfall 0.0 0.0  
Snow Depth 0.00 in    
Sea Level Pressure  
Sea Level Pressure 29.38 in    
Wind  
Wind Speed 9 mph (SE)    
Max Wind Speed 18 mph    
Max Gust Speed 29 mph    
Visibility 9 miles    
Events Rain    
T = Trace of Precipitation, MM = Missing Value Source: NWS Daily Summary

Daily Weather History Graph

Daily Weather History Graph

Search for Another Location

Airport or City:

Trip Planner

Search our weather history database for the weather conditions in past years. The results will help you decide how hot, cold, wet, or windy it might be!

Date:

Astronomy

Sep. 21, 2013 Rise Set
Actual Time 6:30 AM AKDT 6:46 PM AKDT
Civil Twilight 5:54 AM AKDT 7:22 PM AKDT
Nautical Twilight 5:11 AM AKDT 8:05 PM AKDT
Astronomical Twilight 4:25 AM AKDT 8:51 PM AKDT
Moon 7:27 PM AKDT (9/21) 9:27 AM AKDT (9/21)
Length of Visible Light 13h 28m
Length of Day
12h 15m
Waning Gibbous, 93% of the Moon is Illuminated
Sep 21
Waning Gibbous
Sep 26
Last Quarter
Oct 4
New
Oct 11
First Quarter
Oct 18
Full

Hourly Weather History & Observations

Time (AKDT) Temp. Dew Point Humidity Pressure Visibility Wind Dir Wind Speed Gust Speed Precip Events Conditions
12:53 AM 53.1 °F 52.0 °F 96% 29.53 in 10.0 mi SE 4.6 mph - 0.02 in Rain Light Rain
1:53 AM 52.0 °F 51.1 °F 97% 29.52 in 10.0 mi SE 3.5 mph - 0.01 in Rain Light Rain
2:22 AM 51.8 °F 51.8 °F 100% 29.52 in 10.0 mi SE 4.6 mph - 0.01 in Rain Light Rain
2:51 AM 51.8 °F 51.8 °F 100% 29.51 in 10.0 mi Calm Calm - 0.01 in   Overcast
2:53 AM 52.0 °F 51.1 °F 97% 29.51 in 10.0 mi SSE 3.5 mph - 0.01 in   Overcast
3:53 AM 52.0 °F 50.0 °F 93% 29.50 in 10.0 mi SE 5.8 mph - 0.00 in   Overcast
4:51 AM 51.8 °F 50.0 °F 94% 29.49 in 10.0 mi SE 4.6 mph - N/A   Mostly Cloudy
4:53 AM 52.0 °F 50.0 °F 93% 29.50 in 10.0 mi SE 5.8 mph - N/A   Mostly Cloudy
5:11 AM 51.8 °F 50.0 °F 94% 29.49 in 10.0 mi SE 5.8 mph - N/A   Overcast
5:53 AM 52.0 °F 51.1 °F 97% 29.49 in 10.0 mi SE 5.8 mph - N/A   Overcast
6:53 AM 52.0 °F 50.0 °F 93% 29.48 in 10.0 mi SE 8.1 mph - N/A   Overcast
7:53 AM 52.0 °F 48.9 °F 89% 29.48 in 10.0 mi SSE 5.8 mph - N/A   Scattered Clouds
8:53 AM 54.0 °F 50.0 °F 86% 29.47 in 10.0 mi SE 8.1 mph - N/A   Mostly Cloudy
9:53 AM 55.9 °F 48.0 °F 75% 29.45 in 10.0 mi SSE 6.9 mph - N/A   Mostly Cloudy
10:53 AM 55.9 °F 45.0 °F 67% 29.44 in 10.0 mi SSE 9.2 mph - N/A   Overcast
11:53 AM 55.0 °F 48.0 °F 77% 29.42 in 10.0 mi SSE 10.4 mph 19.6 mph N/A   Overcast
12:53 PM 55.9 °F 48.9 °F 77% 29.40 in 10.0 mi SE 15.0 mph 25.3 mph N/A   Overcast
1:53 PM 55.0 °F 48.9 °F 80% 29.39 in 10.0 mi SSE 13.8 mph 23.0 mph N/A   Overcast
2:53 PM 55.0 °F 48.9 °F 80% 29.37 in 10.0 mi SSE 15.0 mph 25.3 mph 0.00 in   Overcast
3:53 PM 54.0 °F 48.0 °F 80% 29.34 in 10.0 mi SE 12.7 mph 24.2 mph 0.00 in Rain Light Rain
5:53 PM 52.0 °F 48.9 °F 89% 29.29 in 7.0 mi SE 18.4 mph - 0.07 in Rain Light Rain
6:53 PM 51.1 °F 48.0 °F 89% 29.26 in 9.0 mi SSE 21.9 mph 36.8 mph 0.01 in Rain Light Rain
7:07 PM 51.8 °F 48.2 °F 88% 29.25 in 8.0 mi SE 20.7 mph 34.5 mph 0.01 in Rain Light Rain
7:51 PM 51.8 °F 48.2 °F 88% 29.23 in 8.0 mi SE 25.3 mph 39.1 mph 0.05 in Rain Light Rain
7:53 PM 51.1 °F 48.0 °F 89% 29.23 in 7.0 mi SE 24.2 mph 39.1 mph 0.05 in Rain Light Rain
8:53 PM 51.1 °F 48.0 °F 89% 29.20 in 9.0 mi SE 24.2 mph 41.4 mph 0.03 in Rain Light Rain
9:53 PM 50.0 °F 48.0 °F 93% 29.16 in 10.0 mi ESE 20.7 mph 32.2 mph 0.06 in   Overcast
10:53 PM 51.1 °F 46.9 °F 86% 29.13 in 8.0 mi SE 20.7 mph 36.8 mph 0.03 in Rain Rain
11:53 PM 50.0 °F 46.9 °F 89% 29.11 in 7.0 mi SE 24.2 mph 35.7 mph 0.08 in Rain Light Rain